EN

Hourly Weather Borodichi

Today, 16 April, Friday

Time Temperature Precipitation Wind Pressure Humidity
00:00 +4°C° 0.1 mm 4 mps 746 mmHg 93%
01:00 +4°C° 0.1 mm 4 mps 746 mmHg 94%
02:00 +4°C° 0.1 mm 4 mps 746 mmHg 94%
03:00 +4°C° 1.1 mm 4 mps 745 mmHg 95%
04:00 +4°C° 1.1 mm 4 mps 745 mmHg 95%
05:00 +4°C° 1.1 mm 4 mps 745 mmHg 96%
06:00 +4°C° 0.3 mm 4 mps 745 mmHg 96%
07:00 +4°C° 0.3 mm 4 mps 744 mmHg 96%
08:00 +5°C° 0.3 mm 4 mps 744 mmHg 96%
09:00 +6°C° 0.1 mm 4 mps 744 mmHg 93%
10:00 +7°C° 0.1 mm 4 mps 744 mmHg 91%
11:00 +7°C° 0.1 mm 5 mps 744 mmHg 89%
12:00 +8°C° 0.1 mm 4 mps 745 mmHg 86%
13:00 +9°C° 0.1 mm 3 mps 745 mmHg 82%
14:00 +10°C° 0.1 mm 3 mps 745 mmHg 78%
15:00 +9°C° 0.6 mm 2 mps 745 mmHg 81%
16:00 +9°C° 0.6 mm 2 mps 745 mmHg 85%
17:00 +10°C° 0.6 mm 1 mps 745 mmHg 88%
18:00 +8°C° 0.4 mm 2 mps 746 mmHg 89%
19:00 +8°C° 0.4 mm 2 mps 746 mmHg 91%
20:00 +7°C° 0.4 mm 2 mps 746 mmHg 93%
21:00 +7°C° 0.1 mm 2 mps 746 mmHg 94%
22:00 +8°C° 0.1 mm 1 mps 746 mmHg 94%
23:00 +8°C° 0.1 mm 1 mps 747 mmHg 95%

Tomorrow, 17 April, Saturday

Time Temperature Precipitation Wind Pressure Humidity
00:00 +8°C° 0.2 mm 1 mps 747 mmHg 95%
01:00 +6°C° 0.2 mm 2 mps 747 mmHg 95%
02:00 +6°C° 0.2 mm 2 mps 747 mmHg 95%
03:00 +6°C° 0.1 mm 2 mps 747 mmHg 95%
04:00 +6°C° 0.1 mm 2 mps 748 mmHg 94%
05:00 +6°C° 0.1 mm 2 mps 748 mmHg 94%
06:00 +7°C° 0.1 mm 1 mps 748 mmHg 92%
07:00 +7°C° 0.1 mm 1 mps 749 mmHg 90%
08:00 +7°C° 0.1 mm 1 mps 749 mmHg 89%
09:00 +8°C° 0 mm 1 mps 750 mmHg 86%
10:00 +8°C° 0 mm 1 mps 750 mmHg 83%
11:00 +9°C° 0 mm 1 mps 750 mmHg 80%
12:00 +10°C° 0 mm 1 mps 750 mmHg 75%
13:00 +11°C° 0 mm 1 mps 750 mmHg 70%
14:00 +12°C° 0 mm 1 mps 750 mmHg 65%
15:00 +12°C° 0 mm 1 mps 750 mmHg 64%
16:00 +12°C° 0 mm 1 mps 750 mmHg 64%
17:00 +12°C° 0 mm 1 mps 750 mmHg 64%
18:00 +11°C° 0 mm 1 mps 751 mmHg 68%
19:00 +10°C° 0 mm 1 mps 751 mmHg 72%
20:00 +9°C° 0 mm 1 mps 751 mmHg 77%
21:00 +9°C° 0 mm 1 mps 751 mmHg 79%
22:00 +8°C° 0 mm 1 mps 751 mmHg 82%
23:00 +7°C° 0 mm 2 mps 750 mmHg 84%

Day after tomorrow, 18 April, Sunday

Time Temperature Precipitation Wind Pressure Humidity
00:00 +7°C° 0.1 mm 2 mps 750 mmHg 86%
01:00 +7°C° 0.1 mm 2 mps 750 mmHg 88%
02:00 +7°C° 0.1 mm 2 mps 750 mmHg 90%
03:00 +7°C° 0.3 mm 2 mps 750 mmHg 91%
04:00 +7°C° 0.3 mm 2 mps 750 mmHg 93%
05:00 +7°C° 0.3 mm 2 mps 749 mmHg 95%
06:00 +8°C° 0.3 mm 3 mps 749 mmHg 93%
07:00 +8°C° 0.3 mm 3 mps 749 mmHg 92%
08:00 +8°C° 0.3 mm 4 mps 749 mmHg 91%
09:00 +10°C° 0.1 mm 4 mps 749 mmHg 85%
10:00 +10°C° 0.1 mm 5 mps 749 mmHg 80%
11:00 +10°C° 0.1 mm 5 mps 749 mmHg 75%
12:00 +12°C° 0.1 mm 5 mps 749 mmHg 73%
13:00 +12°C° 0.1 mm 5 mps 749 mmHg 71%
14:00 +12°C° 0.1 mm 5 mps 749 mmHg 69%
15:00 +12°C° 0 mm 5 mps 749 mmHg 71%
16:00 +10°C° 0 mm 5 mps 749 mmHg 74%
17:00 +10°C° 0 mm 5 mps 749 mmHg 76%
18:00 +10°C° 0 mm 4 mps 750 mmHg 79%
19:00 +8°C° 0 mm 4 mps 750 mmHg 82%
20:00 +8°C° 0 mm 3 mps 750 mmHg 85%
21:00 +7°C° 0 mm 3 mps 750 mmHg 87%
22:00 +5°C° 0 mm 3 mps 750 mmHg 89%
23:00 +5°C° 0 mm 3 mps 750 mmHg 91%

19 April, Monday

Time Temperature Precipitation Wind Pressure Humidity
00:00 +4°C° 0 mm 3 mps 750 mmHg 91%
01:00 +3°C° 0 mm 3 mps 750 mmHg 92%
02:00 +4°C° 0 mm 2 mps 750 mmHg 92%
03:00 +3°C° 0 mm 2 mps 750 mmHg 92%
04:00 +3°C° 0 mm 2 mps 750 mmHg 92%
05:00 +3°C° 0 mm 2 mps 750 mmHg 93%
06:00 +4°C° 0 mm 2 mps 750 mmHg 87%
07:00 +6°C° 0 mm 2 mps 750 mmHg 82%
08:00 +7°C° 0 mm 2 mps 750 mmHg 76%
09:00 +8°C° 0 mm 2 mps 749 mmHg 72%
10:00 +9°C° 0 mm 3 mps 749 mmHg 69%
11:00 +10°C° 0 mm 3 mps 749 mmHg 65%
12:00 +10°C° 0.1 mm 3 mps 748 mmHg 64%
13:00 +10°C° 0.1 mm 3 mps 748 mmHg 63%
14:00 +10°C° 0.1 mm 3 mps 748 mmHg 63%
15:00 +10°C° 0.2 mm 3 mps 748 mmHg 65%
16:00 +10°C° 0.2 mm 4 mps 747 mmHg 68%
17:00 +8°C° 0.2 mm 4 mps 747 mmHg 71%
18:00 +7°C° 0 mm 4 mps 747 mmHg 77%
19:00 +6°C° 0 mm 4 mps 747 mmHg 82%
20:00 +5°C° 0 mm 4 mps 746 mmHg 87%
21:00 +5°C° 0 mm 3 mps 746 mmHg 88%
22:00 +5°C° 0 mm 3 mps 746 mmHg 89%
23:00 +5°C° 0 mm 3 mps 745 mmHg 89%

20 April, Tuesday

Time Temperature Precipitation Wind Pressure Humidity
00:00 +5°C° 0 mm 3 mps 745 mmHg 90%
01:00 +5°C° 0 mm 3 mps 744 mmHg 90%
02:00 +5°C° 0 mm 3 mps 744 mmHg 91%
03:00 +5°C° 0.1 mm 3 mps 743 mmHg 91%
04:00 +4°C° 0.1 mm 3 mps 743 mmHg 92%
05:00 +4°C° 0.1 mm 3 mps 742 mmHg 92%
06:00 +5°C° 0.1 mm 3 mps 742 mmHg 91%
07:00 +5°C° 0.1 mm 3 mps 742 mmHg 90%
08:00 +5°C° 0.1 mm 4 mps 742 mmHg 89%
09:00 +6°C° 0.2 mm 4 mps 742 mmHg 87%
10:00 +6°C° 0.2 mm 4 mps 741 mmHg 86%
11:00 +6°C° 0.2 mm 5 mps 741 mmHg 84%
12:00 +7°C° 0.4 mm 5 mps 740 mmHg 84%
13:00 +7°C° 0.4 mm 5 mps 740 mmHg 83%
14:00 +7°C° 0.4 mm 6 mps 740 mmHg 82%
15:00 +7°C° 0.1 mm 6 mps 739 mmHg 83%
16:00 +7°C° 0.1 mm 6 mps 739 mmHg 84%
17:00 +5°C° 0.1 mm 6 mps 738 mmHg 85%
18:00 +5°C° 0.3 mm 6 mps 738 mmHg 87%
19:00 +4°C° 0.3 mm 7 mps 738 mmHg 89%
20:00 +4°C° 0.3 mm 7 mps 738 mmHg 91%
21:00 +4°C° 0.6 mm 7 mps 737 mmHg 90%
22:00 +4°C° 0.6 mm 8 mps 737 mmHg 90%
23:00 +4°C° 0.6 mm 8 mps 736 mmHg 89%

21 April, Wednesday

Time Temperature Precipitation Wind Pressure Humidity
00:00 +4°C° 0.9 mm 8 mps 736 mmHg 90%
01:00 +2°C° 0.9 mm 8 mps 736 mmHg 90%
02:00 +2°C° 0.9 mm 8 mps 736 mmHg 90%
03:00 +2°C° 0.7 mm 8 mps 736 mmHg 90%
04:00 +2°C° 0.7 mm 8 mps 736 mmHg 90%
05:00 +2°C° 0.7 mm 8 mps 736 mmHg 90%
06:00 +2°C° 0.2 mm 8 mps 737 mmHg 90%
07:00 +2°C° 0.2 mm 8 mps 737 mmHg 89%
08:00 +2°C° 0.2 mm 8 mps 737 mmHg 89%
09:00 +2°C° 0.1 mm 8 mps 738 mmHg 88%
10:00 +3°C° 0.1 mm 9 mps 738 mmHg 87%
11:00 +3°C° 0.1 mm 9 mps 739 mmHg 86%
12:00 +5°C° 0.2 mm 8 mps 739 mmHg 83%
13:00 +6°C° 0.2 mm 8 mps 740 mmHg 79%
14:00 +6°C° 0.2 mm 8 mps 741 mmHg 76%
15:00 +6°C° 0.1 mm 8 mps 741 mmHg 75%
16:00 +6°C° 0.1 mm 7 mps 742 mmHg 75%
17:00 +6°C° 0.1 mm 7 mps 742 mmHg 74%
18:00 +7°C° 0 mm 6 mps 743 mmHg 75%
19:00 +6°C° 0 mm 5 mps 743 mmHg 77%
20:00 +6°C° 0 mm 5 mps 744 mmHg 78%
21:00 +5°C° 0 mm 4 mps 744 mmHg 81%
22:00 +4°C° 0 mm 4 mps 745 mmHg 85%
23:00 +4°C° 0 mm 3 mps 745 mmHg 88%
Show more

We Need Your Consent

Meteoprog and our Service Providers may store and access personal data such as cookies, device identifiers or other similar technologies on your device and process such data to personalise content and ads, as well as provide social media features and to analyse the traffic.

  • Store and/or access information on your device

    Cookies, device identifiers or other information can be stored or accessed on your device for the purposes indicated above.

  • Personalised ads and content, ad and content measurement, audience insights, and products development

    Ads and content can be personalised based on a profile. More data can be added to better personalise ads and content. Ad and content performance can be measured. Insights about the audience who saw the ads and content can be derived. Such data can be used to develop or improve user’s experience, systems and software.

By clicking ‘I Agree’ you will allow the use of indicated cookies, device identifiers, web beacons or other similar technologies. Your settings can be changed in the browser on your device.

For certain purposes, legitimate interests may be relied on, rather than consent. You can read more about this in our Privacy and Cookie Policy.